FENGYUN 1C DEB, 30467

Orbit data source: Space-Track

FENGYUN 1C DEB, 30467 is space debris in SSO originally from a launch on Mon, 10 May 1999 UTC launched from the Taiyaun Space Center, China (TSC). Fengyun 1C debris stems from the Chinese weather satellite Fengyun-1C, which was intentionally destroyed by a Chinese anti-satellite missile in 2007. This event dramatically increased the amount of space debris, with thousands of trackable fragments posing hazards to satellites and human spaceflight. The Fengyun 1C debris cloud has become a focal point in discussions about space sustainability and the need for international regulations to prevent the creation of new debris.

Loading next visibility...
Identifier
30467, 1999-025AGE
Orbit
SSO
Country
Flag of CNCN / PRC
Related business
Manufacturer
Unknown
Mission
Spacecraft
Bus & Motor
Unknown
Mass
Unknown
Launch date (UTC)
1999-05-10 (27 years ago)
Launch vehicle
Unknown
Launch site
Taiyaun Space Center, China (TSC)
Object type
Payload
Rocket body
Debris
Shape & HBR
Unknown shape, 0.1 m
Radar Cross Section
Medium (>0.1 m² and <1 m²)

Expand to show TLE details & history
Last TLE update: 8 hours ago

TLE from 8 hours ago
0 FENGYUN 1C DEB
1 30467U 99025AGE 26254.57043918  .00000981  00000-0  48879-3 0  9998
2 30467  98.6572 280.5127 0064624  64.1852  59.8128 14.18111884 10317
Epoch: 2026-09-11T13:41Z
TLE epoch observation values (Epoch: 2026-09-11T13:41:25.945Z)
Latitude
54.52631°
Longitude
-83.16659°
Altitude
817.504 km
Speed
7.462 km/s
True Right ascension
07h 31m 08s
True Declination
54° 21' 54"
Sunlit
Object was in daylight at epoch
Visualization orbit readout
Latitude
Unknown
Longitude
Unknown
Altitude
Unknown
Speed
Unknown
Apparent Right ascension
Unknown
Apparent Declination
Unknown
Sunlit
N/A
Visualization observer readout
Local Sidereal Time
13:42:19
Azimuth
Unknown
Elevation
Unknown
Doppler factor
Unknown
Orbital elements
Apogee altitude
875.479 km
Perigee altitude
782.329 km
Semi-major axis
7,207.041 km
Eccentricity
0.00646
Inclination
98.6572°
RAAN
280.5127°
Arg. of periapsis
64.1852°
True anomaly
60.45551°
Mean anomaly
59.8128°
Eccentric anomaly
60.13389°
Mean motion
3.54738 °/min
Orbital period
101.48 mins
BSTAR
0.00048879
Loading maneuver chart data...
Computing Atmospheric mass density...
Loading historical data...
Loading historical data...
Loading historical data...
Loading historical data...
Loading historical data...
Loading historical data...
Loading historical data...

Documentation

Showing up to 5 results
|